[[{"header":{"parameterUnit":"m.s-1","parameterCategory":1,"la1":30.2991,"la2":30.254,"lo1":-89.0895,"lo2":-89.0444,"dy":0.0017,"dx":0.0017,"nx":28,"ny":28,"refTime":"2023-10-24T21:00:00:Z","depth":0,"parameterNumber":2,"parameterNumberName":"U-component_of_WINDS"},"data":[0,0,0,0,0,0,0,0,0,0,0,0,0,0,0,0,0,0,0,0,0,0,0,0,0,0,0,0,0,0,0,0,0,0,0,0,0,0,0,0,0,0,0,0,0,0,0,0,0,0,0,0,0,0,0,0,0,0,-5.125,-5.1251,0,-5.1374,-5.1376,-5.1377,-5.1316,-5.1313,-5.131,-5.1307,-5.1433,-5.1439,-5.1446,0,0,0,0,0,0,0,0,0,0,0,0,0,-5.0962,-5.0968,-5.125,-5.1252,-5.1253,-5.1374,-5.1376,-5.1377,-5.1317,-5.1313,-5.1309,-5.1305,-5.1431,-5.1439,-5.1446,0,0,0,0,0,0,0,0,0,0,0,0,0,-5.1087,-5.097,-5.125,-5.1237,-5.1238,-5.1374,-5.1376,-5.1378,-5.1317,-5.1313,-5.1308,-5.1303,-5.1429,-5.1438,-5.1447,-5.1602,0,0,-5.1476,-5.1481,0,0,0,0,0,0,0,0,-5.108,-5.1097,-5.1238,-5.1238,-5.1239,-5.1325,-5.132,-5.1453,-5.1319,-5.1287,-5.1306,-5.1301,-5.1401,-5.1412,-5.1446,-5.1608,-5.1614,-5.1477,-5.1483,-5.1487,-5.149,0,0,0,0,0,0,0,-5.1071,-5.1092,-5.1299,-5.124,-5.1241,-5.1226,-5.1239,-5.1345,-5.1369,-5.1289,-5.1285,-5.1301,-5.14,-5.1437,-5.1449,-5.1616,-5.1477,-5.1485,-5.1491,-5.1495,-5.1913,-5.1918,0,0,0,0,0,0,-5.1063,-5.1085,-5.1295,-5.1303,-5.1146,-5.1235,-5.1249,-5.1302,-5.1368,-5.1374,-5.1305,-5.1298,-5.1423,-5.1438,-5.1453,-5.1638,-5.1487,-5.1496,-5.1502,-5.1907,-5.1914,-5.192,0,0,0,0,0,0,-5.1057,-5.1082,-5.129,-5.1193,-5.1218,-5.1245,-5.1305,-5.1307,-5.1344,-5.138,-5.1384,-5.1338,-5.142,-5.144,-5.1566,-5.1642,-5.15,-5.1509,-5.1901,-5.1909,-5.1917,-5.2011,0,0,0,0,0,0,-5.1049,-5.1081,-5.1139,-5.1195,-5.1224,-5.1401,-5.131,-5.1313,-5.136,-5.1352,-5.1412,-5.1417,-5.1418,-5.1552,-5.1576,-5.1653,-5.1516,-5.1894,-5.1905,-5.1914,-5.2001,-5.2021,-5.2039,0,0,0,0,0,-5.1039,-5.116,-5.1142,-5.1168,-5.1297,-5.1405,-5.1422,-5.142,-5.1367,-5.1426,-5.145,-5.1415,-5.1631,-5.1566,-5.1591,-5.1673,-5.1889,-5.1902,-5.1913,-5.1993,-5.2017,-5.2038,0,0,0,0,0,0,-5.1112,-5.1167,-5.1148,-5.1291,-5.1344,-5.1395,-5.1469,-5.1446,-5.1515,-5.1504,-5.1499,-5.1514,-5.1645,-5.1672,-5.1598,-5.1827,-5.1752,-5.177,-5.1804,-5.1827,-5.1846,-5.1835,-5.1524,0,0,0,0,0,-5.1145,-5.1228,-5.1272,-5.1394,-5.1422,-5.1441,-5.1488,-5.1483,-5.1537,-5.1559,-5.1592,-5.1646,-5.1726,-5.1779,-5.1855,-5.2007,-5.2019,-5.2076,-5.2094,-5.2109,-5.2124,-5.2206,-5.2232,-5.1959,-5.1959,-5.1959,0,0,-5.1213,-5.1254,-5.1306,-5.141,-5.145,-5.1536,-5.146,-5.1554,-5.1618,-5.1573,-5.1694,-5.1721,-5.1782,-5.1922,-5.1985,-5.1948,-5.2203,-5.2125,-5.2137,-5.2143,-5.2221,-5.2247,-5.227,-5.1968,-5.1966,-5.1965,0,0,-5.1381,-5.1421,-5.1526,-5.1569,-5.1632,-5.1645,-5.1671,-5.1726,-5.1742,-5.1864,-5.1833,-5.1909,-5.2047,-5.2092,-5.2132,-5.2322,-5.2292,-5.2347,-5.2443,-5.2524,-5.2545,-5.2564,-5.263,-5.2654,-5.2362,-5.2362,-5.2363,0,-5.1457,-5.1585,-5.1584,-5.1681,-5.1727,-5.1693,-5.18,-5.1842,-5.1926,-5.1959,-5.1918,-5.2092,-5.213,-5.228,-5.2326,-5.2361,-5.239,-5.2338,-5.2542,-5.2561,-5.2579,-5.2642,-5.2667,-5.2368,-5.2368,-5.2367,-5.2366,0,-5.1676,-5.1766,-5.1844,-5.1926,-5.1983,-5.2084,-5.2099,-5.2156,-5.2148,-5.2165,-5.229,-5.2336,-5.2421,-5.2457,-5.2449,-5.2607,-5.2582,-5.2542,-5.2466,-5.2611,-5.267,-5.2694,-5.2377,-5.2375,-5.2373,-5.2372,0,0,-5.1888,-5.1972,-5.2,-5.2038,-5.2106,-5.2176,-5.2277,-5.2361,-5.2409,-5.247,-5.2555,-5.2674,-5.2638,-5.2685,-5.2682,-5.2754,-5.29,-5.2705,-5.2706,-5.2738,-5.3076,-5.3103,-5.3131,-5.2883,-5.2888,-5.2891,-5.307,0,-5.2059,-5.2235,-5.2239,-5.2401,-5.2483,-5.2455,-5.2543,-5.2595,-5.2616,-5.269,-5.2713,-5.2797,-5.2744,-5.2772,-5.2841,-5.2867,-5.2967,-5.2855,-5.296,-5.2964,-5.2942,-5.3162,-5.3191,-5.3357,-5.3093,-5.3097,-5.31,0,-5.228,-5.2349,-5.2519,-5.2577,-5.2612,-5.2691,-5.2769,-5.2841,-5.29,-5.291,-5.2964,-5.2952,-5.3056,-5.298,-5.3124,-5.3047,-5.3092,-5.3112,-5.3118,-5.3125,-5.3038,-5.3173,-5.3411,-5.3435,-5.3137,-5.3134,-5.3131,0,-5.2416,-5.2551,-5.267,-5.2704,-5.2775,-5.2832,-5.2864,-5.2919,-5.297,-5.3039,-5.3071,-5.3152,-5.3195,-5.3258,-5.3268,-5.3212,-5.3412,-5.3337,-5.3423,-5.3423,-5.3463,-5.3459,-5.3708,-5.3497,-5.3496,-5.3496,-5.3495,0,-5.2604,-5.2709,-5.2732,-5.2805,-5.2923,-5.2927,-5.3043,-5.3072,-5.3122,-5.32,-5.3182,-5.3256,-5.3266,-5.3344,-5.3353,-5.347,-5.3491,-5.3501,-5.3502,-5.3501,-5.3499,-5.3527,-5.3515,-5.3503,-5.3501,-5.35,-5.3499,0,-5.2772,-5.2793,-5.2921,-5.2979,-5.2997,-5.308,-5.313,-5.3201,-5.3221,-5.3321,-5.3345,-5.3377,-5.3467,-5.3485,-5.3592,-5.3598,-5.3737,-5.3728,-5.3717,-5.3715,-5.3799,-5.379,-5.4071,-5.4108,-5.3875,-5.3877,-5.3879,0,-5.2889,-5.2969,-5.3037,-5.3089,-5.3124,-5.3208,-5.326,-5.3269,-5.3324,-5.34,-5.3461,-5.355,-5.3621,-5.3767,-5.38,-5.3882,-5.3873,-5.3966,-5.3885,-5.3882,-5.3872,-5.3865,-5.3873,-5.398,-5.3983,-5.3985,-5.3987,0,-5.3094,-5.3101,-5.3177,-5.3257,-5.332,-5.3384,-5.3444,-5.3488,-5.3505,-5.3568,-5.3661,-5.3716,-5.3827,-5.3915,-5.3998,-5.4031,-5.4012,-5.4013,-5.4037,-5.4035,-5.4024,-5.4029,-5.3756,-5.4005,-5.4003,-5.4002,-5.4001,-5.4,-5.3239,-5.3309,-5.3368,-5.3454,-5.3501,-5.3558,-5.3628,-5.3658,-5.3735,-5.3825,-5.3827,-5.3928,-5.3988,-5.4097,-5.4137,-5.4217,-5.4187,-5.4222,-5.4231,-5.4238,-5.4245,-5.4015,-5.4233,-5.4232,-5.4232,-5.4231,-5.4231,0,-5.3441,-5.3478,-5.3557,-5.3643,-5.3711,-5.3689,-5.3756,-5.3814,-5.3903,-5.3961,-5.4032,-5.4139,-5.4226,-5.4267,-5.4353,-5.4409,-5.4402,-5.4431,-5.4425,-5.4433,-5.4268,-5.4237,-5.4435,-5.4435,-5.4435,-5.4435,-5.4435,-5.4435,-5.3553,-5.3671,-5.3686,-5.3827,-5.3864,-5.3963,-5.4003,-5.4056,-5.4103,-5.4223,-5.4295,-5.4322,-5.4374,-5.4464,-5.4543,-5.4553,-5.4584,-5.4617,-5.4622,-5.4466,-5.4445,-5.4425,-5.4396,-5.4624,-5.4624,-5.4781,-5.4783,-5.4784]},{"header":{"parameterUnit":"m.s-1","parameterCategory":1,"la1":30.2991,"la2":30.254,"lo1":-89.0895,"lo2":-89.0444,"dy":0.0017,"dx":0.0017,"nx":28,"ny":28,"refTime":"2023-10-24T21:00:00:Z","depth":0,"parameterNumber":3,"parameterNumberName":"V-component_of_WINDS"},"data":[0,0,0,0,0,0,0,0,0,0,0,0,0,0,0,0,0,0,0,0,0,0,0,0,0,0,0,0,0,0,0,0,0,0,0,0,0,0,0,0,0,0,0,0,0,0,0,0,0,0,0,0,0,0,0,0,0,0,3.0989,3.099,0,3.1077,3.1078,3.1079,3.1038,3.1036,3.1034,3.1031,3.1118,3.1123,3.1127,0,0,0,0,0,0,0,0,0,0,0,0,0,3.0785,3.0789,3.0989,3.0991,3.0992,3.1077,3.1079,3.108,3.1038,3.1036,3.1033,3.103,3.1117,3.1122,3.1127,0,0,0,0,0,0,0,0,0,0,0,0,0,3.0873,3.079,3.0989,3.0981,3.0982,3.1077,3.1079,3.108,3.1039,3.1036,3.1032,3.1029,3.1115,3.1121,3.1128,3.1235,0,0,3.1148,3.1151,0,0,0,0,0,0,0,0,3.0868,3.0881,3.0981,3.0982,3.0982,3.1043,3.1038,3.1132,3.104,3.1017,3.1031,3.1028,3.1096,3.1104,3.1127,3.1239,3.1243,3.1149,3.1153,3.1155,3.1157,0,0,0,0,0,0,0,3.0862,3.0877,3.1024,3.0983,3.0984,3.0973,3.0982,3.1056,3.1074,3.1019,3.1016,3.1027,3.1095,3.1121,3.1129,3.1244,3.1148,3.1154,3.1158,3.1161,3.1451,3.1455,0,0,0,0,0,0,3.0857,3.0872,3.1021,3.1027,3.0916,3.098,3.099,3.1027,3.1073,3.1077,3.103,3.1025,3.1112,3.1122,3.1132,3.1262,3.1155,3.1162,3.1165,3.1448,3.1452,3.1456,0,0,0,0,0,0,3.0852,3.087,3.1018,3.0949,3.0967,3.0987,3.1029,3.1031,3.1056,3.1082,3.1084,3.1053,3.1109,3.1123,3.1211,3.1265,3.1164,3.117,3.1443,3.1449,3.1454,3.1522,0,0,0,0,0,0,3.0847,3.0869,3.091,3.095,3.0971,3.1095,3.1033,3.1035,3.1068,3.1063,3.1104,3.1108,3.1108,3.1201,3.1217,3.1272,3.1176,3.1438,3.1446,3.1452,3.1515,3.153,3.1542,0,0,0,0,0,3.084,3.0924,3.0912,3.093,3.1022,3.1098,3.111,3.111,3.1073,3.1114,3.1131,3.1106,3.1257,3.1211,3.1228,3.1286,3.1435,3.1444,3.1452,3.1509,3.1527,3.1542,0,0,0,0,0,0,3.0888,3.0929,3.0916,3.1016,3.1055,3.1091,3.1143,3.1128,3.1176,3.1168,3.1165,3.1175,3.1266,3.1285,3.1233,3.1393,3.134,3.1352,3.1378,3.1394,3.1407,3.1401,3.1181,0,0,0,0,0,3.091,3.0969,3.1002,3.1088,3.1108,3.1123,3.1156,3.1153,3.1191,3.1207,3.1229,3.1267,3.1323,3.136,3.1413,3.1518,3.1527,3.1567,3.158,3.1591,3.1601,3.1661,3.1679,3.1484,3.1484,3.1484,0,0,3.0957,3.0987,3.1024,3.1098,3.1127,3.1189,3.1136,3.1202,3.1248,3.1216,3.1301,3.132,3.1362,3.146,3.1504,3.1478,3.1658,3.1602,3.161,3.1615,3.1671,3.169,3.1706,3.149,3.1489,3.1488,0,0,3.1073,3.1102,3.1177,3.1208,3.1254,3.1264,3.1282,3.1323,3.1334,3.142,3.1398,3.1452,3.1548,3.158,3.1609,3.1742,3.1721,3.1759,3.1828,3.1886,3.1901,3.1915,3.1963,3.198,3.177,3.177,3.177,0,3.1125,3.1217,3.1217,3.1287,3.132,3.1297,3.1374,3.1404,3.1464,3.1488,3.1458,3.1581,3.1607,3.1713,3.1746,3.177,3.1791,3.1753,3.1899,3.1913,3.1925,3.1971,3.199,3.1774,3.1774,3.1773,3.1773,0,3.1279,3.1343,3.1399,3.146,3.15,3.1572,3.1584,3.1625,3.162,3.1633,3.1722,3.1754,3.1814,3.1839,3.1833,3.1945,3.1928,3.1899,3.1845,3.1948,3.1992,3.2009,3.178,3.1779,3.1778,3.1776,0,0,3.1424,3.1488,3.1508,3.1537,3.1588,3.1637,3.171,3.177,3.1806,3.1849,3.191,3.1994,3.1969,3.2001,3.1999,3.2051,3.2156,3.2016,3.2017,3.2041,3.2283,3.2304,3.2325,3.2143,3.2147,3.2149,3.228,0,3.1545,3.1673,3.1677,3.1794,3.1854,3.1835,3.1899,3.1937,3.1952,3.2006,3.2022,3.2082,3.2044,3.2064,3.2114,3.2132,3.2204,3.2123,3.22,3.2203,3.219,3.2347,3.2369,3.249,3.2296,3.2299,3.2301,0,3.1701,3.1752,3.1876,3.1921,3.1946,3.2003,3.206,3.2112,3.2155,3.2163,3.2202,3.2194,3.2268,3.2214,3.2317,3.2262,3.2294,3.2308,3.2313,3.232,3.2258,3.2358,3.2529,3.2547,3.2328,3.2326,3.2324,0,3.1796,3.1896,3.1983,3.2008,3.2062,3.2103,3.2127,3.2168,3.2205,3.2255,3.228,3.2337,3.2369,3.2414,3.2422,3.2381,3.2526,3.2471,3.2535,3.2535,3.2565,3.2563,3.2743,3.2586,3.2586,3.2585,3.2585,0,3.193,3.2006,3.2027,3.208,3.2166,3.2171,3.2256,3.2277,3.2314,3.2372,3.2359,3.2413,3.242,3.2477,3.2483,3.2569,3.2583,3.2591,3.2592,3.2592,3.2592,3.2613,3.2604,3.259,3.2589,3.2588,3.2587,0,3.2049,3.2066,3.216,3.2206,3.2219,3.228,3.2319,3.2371,3.2386,3.246,3.2477,3.2501,3.2567,3.258,3.2657,3.2662,3.2764,3.2756,3.275,3.2749,3.2812,3.2806,3.3012,3.304,3.2865,3.2866,3.2868,0,3.2133,3.2192,3.2245,3.2283,3.2311,3.2372,3.2411,3.2419,3.246,3.2517,3.2562,3.2628,3.268,3.2787,3.2811,3.2871,3.2864,3.2933,3.2873,3.2872,3.2866,3.2862,3.2869,3.2943,3.2945,3.2947,3.2948,0,3.228,3.2287,3.2344,3.2405,3.2453,3.2501,3.2546,3.2579,3.2593,3.264,3.2709,3.275,3.2831,3.2896,3.2957,3.2981,3.2968,3.2967,3.2985,3.2986,3.298,3.2985,3.2781,3.2962,3.2961,3.296,3.2959,3.2958,3.2385,3.2437,3.2484,3.2548,3.2585,3.2628,3.268,3.2704,3.2762,3.2829,3.2831,3.2906,3.2951,3.3031,3.3061,3.312,3.3098,3.3124,3.313,3.3136,3.3143,3.2972,3.3131,3.313,3.313,3.313,3.3129,0,3.2532,3.2562,3.2622,3.2688,3.2739,3.2724,3.2775,3.2819,3.2886,3.293,3.2983,3.3063,3.3128,3.3158,3.3222,3.3264,3.3259,3.328,3.3277,3.3283,3.3158,3.3137,3.3283,3.3283,3.3283,3.3283,3.3283,3.3283,3.2614,3.2703,3.2716,3.2823,3.2852,3.2927,3.2958,3.2999,3.3034,3.3125,3.3179,3.32,3.3239,3.3306,3.3365,3.3372,3.3396,3.342,3.3425,3.3307,3.3291,3.3277,3.3256,3.3425,3.3426,3.3545,3.3546,3.3547]}]]